Location: ??????
(55.2000°N, 38.3000°E)
Time: 08:39:33
(UTC+00:00)

Resurs 1-4 Rocket - Pass Details

Date: 15 November 2025
Orbit: 799 x 811 km, 98.8° (Epoch: 14 December)

Event Time Altitude Azimuth Distance (km) Brightness Sun altitude
Rises 02:25:49 0° 11° (N) 3,339 5.4 -21.6°
Reaches altitude 10° 02:29:00 10° 351° (N) 2,406 4.4 -21.1°
Enters shadow 02:30:21 14° 337° (NNW) 2,142 4.1 -20.9°
